Tracking 29088 objects as of 13-Jul-2024
HD Live streaming from Space Station
objects crossing your sky now

STARLINK-3931

Track STARLINK-3931 now!
10-day predictions
STARLINK-3931 is classified as:


NORAD ID: 52548
Int'l Code: 2022-051R
Perigee: 545.9 km
Apogee: 547.8 km
Inclination: 53.2 °
Period: 95.4 minutes
Semi major axis: 6917 km
RCS: Unknown
Launch date: May 13, 2022
Source: United States (US)
Launch site: AIR FORCE WESTERN TEST RANGE (AFWTR)
Your satellite tracking list
Your tracking list is empty




NASA's NSSDC Master Catalog

Two Line Element Set (TLE):
1 52548U 22051R   24194.75423053  .00001166  00000-0  91351-4 0  9990
2 52548  53.2144 324.7853 0001333  90.6865 269.4280 15.08845604120196
Source of the keplerian elements: AFSPC